Regional Weather Roundup
Issued by NWS

Home | Current Version | Previous Version | Text Only | Print | Product List | Glossary On
Versions: 1 2 3 4 5 6 7 8 9 10 11 12 13 14 15 16 17 18 19 20 21 22 23 24 25 26 27 28 29 30 31 32 33 34 35 36 37 38 39 40 41 42 43 44 45 46 47 48 49 50
000
ASHW40 PHFO 280130
RWRHI

WEATHER ROUNDUP FOR HAWAII
NATIONAL WEATHER SERVICE HONOLULU HI
300 PM HST THU AUG 27 2015

THIS IS AN AUTOMATED REPORT THAT HAS NOT BEEN QUALITY CONTROLLED.

NOTE..."FAIR" INDICATES FEW OR NO CLOUDS BELOW 12,000 FEET WITH NO
SIGNIFICANT WEATHER AND/OR OBSTRUCTIONS TO VISIBILITY.

* - THESE SITES REPORT LIMITED FIELDS

HIZ001>004-280200-
KAUAI-NIIHAU-

CITY           SKY/WX    TMP DP  RH WIND       PRES   REMARKS
LIHUE APT      SUNNY     84  78  82 E6        29.86F HX  95
PORT ALLEN*    NOT AVBL
POIPU*           N/A     86 N/A N/A E2          N/A
PRINCEVILLE*     N/A     81 N/A N/A MISG        N/A
KOKOLE POINT*  NOT AVBL
MOLOAA DAIRY*    N/A     84  77  79 E6G12       N/A  HX  94
WAIMEA HTS*    NOT AVBL
PUU OPAE*      NOT AVBL
PUU LUA*       NOT AVBL
MAKAHA RIDGE*    N/A     75  73  94 VRB1        N/A
$$

HIZ005>011-280200-
OAHU-

CITY           SKY/WX    TMP DP  RH WIND       PRES   REMARKS
HONOLULU       TSTM      82  77  84 VRB7      29.84S HX  90
KALAELOA       LGT RAIN  84  73  70 W6        29.85F HX  91
KANEOHE MCB    CLOUDY    84  76  76 N7        29.81F HX  93
WHEELER FIELD  LGT RAIN  77  75  94 VRB1      29.85F FOG
BELLOWS*         N/A    N/A N/A N/A NE6         N/A
KAHUKU*          N/A    N/A N/A N/A NE5G12      N/A
WHEELER*       NOT AVBL
WAIANAE HARBOR NOT AVBL
DILLINGHAM*      N/A     86  73  66 MISG        N/A  HX  93
KAHUKU TRN*      N/A     86  70  58 E5G10       N/A  HX  90
KAWAILOA*        N/A     79  73  83 S3G9        N/A
KII*             N/A     86  75  70 E6          N/A  HX  95
MAKUA RANGE*     N/A     82  73  74 E7          N/A
OAHU FOREST NW NOT AVBL
SCHOFIELD BRK*   N/A     75  73  94 MISG        N/A
SCHOFIELD S*   NOT AVBL
WAIANAE VLY*   NOT AVBL
KUAOKALA*      NOT AVBL
HONOULIUULI*   NOT AVBL
MOKUOLOE IS*   NOT AVBL
PALEHUA*       NOT AVBL
WAIAWA PHB*    NOT AVBL
$$

HIZ012>013-280200-
MOLOKAI-

CITY           SKY/WX    TMP DP  RH WIND       PRES   REMARKS
MOLOKAI AIRPT  PTSUNNY   86  73  65 N8        29.86F HX  93
KALAUPAPA      NOT AVBL
MAKAPULAPAI*   NOT AVBL
MOLOKAI 1*     NOT AVBL
PUU ALII*        N/A     70  65  84 CALM        N/A
$$

HIZ016-280200-
KAHOOLAWE-

CITY           SKY/WX    TMP DP  RH WIND       PRES   REMARKS
KAHOOLAWE*     NOT AVBL
HAKIOAWA*        N/A     84  73  70 CALM      30.28F HX  90
HONOKANAIA*      N/A     87  74  65 S5G10     29.79F HX  96
KANELOA*         N/A     86  73  66 E9G15     29.92F HX  93
KEALIALALO*      N/A     86  72  62 N2G13     29.85F HX  92
LUA MAKIKA*    NOT AVBL
$$

HIZ014>015-280200-
LANAI-

CITY           SKY/WX    TMP DP  RH WIND       PRES   REMARKS
LANAI CITY     FAIR      80  75  84 W10       29.90F
LANAI 1*       NOT AVBL
$$

HIZ017>028-280200-
MAUI-

CITY           SKY/WX    TMP DP  RH WIND       PRES   REMARKS
KAHULUI        MOSUNNY   91  71  51 N14       29.84F HX  97
KAPALUA-W MAUI MOSUNNY   91  72  52 NE15      29.84  HX  98
HANA AIRPORT   SUNNY     86  73  66 E5        29.87S HX  93
HANA*            N/A     86 N/A N/A E6G12       N/A
HALEAKALA SUMM   N/A     59  52  77 SE5G16      N/A
MAALAEA BAY*   NOT AVBL
HALEAKALA*     NOT AVBL
KAUPO GAP*     NOT AVBL
KULA 1*          N/A     63  62  97 NW3         N/A
$$

HIZ023>026-280200-
BIG ISLAND OF HAWAII COAST AND LOWER SLOPES-

CITY           SKY/WX    TMP DP  RH WIND       PRES   REMARKS
KAILUA KONA    MOSUNNY   86  74  67 SW7       29.81F HX  94
HILO           PTSUNNY   86  73  65 E13       29.84F HX  93
HONOKAA*       NOT AVBL
KAWAIHAE MWT*    N/A     88 N/A N/A W6          N/A
KAWAIHAE*        N/A     84 N/A N/A SW3         N/A
SOUTH POINT*     N/A     77 N/A N/A E12G18      N/A
UPOLU AIRPORT*   N/A    N/A N/A N/A E15G23      N/A
KAMUELA*       NOT AVBL
HAKALAU*         N/A     67  63  87 E5          N/A
KALOKO-HONOKO*   N/A     88  73  62 W7          N/A  HX  96
PALI 2*          N/A     68  68 100 E6          N/A
KEALAKOMO*       N/A     79  66  65 E8          N/A
KAUPULEHU*     NOT AVBL
KAPAPALA*        N/A     72  71  97 W2          N/A
LOWER KAHUKU*    N/A     70 N/A N/A SE2G9       N/A
PUHE CS*         N/A     88  75  66 SW3G10      N/A  HX  97
PUHO CS*         N/A     85  72  65 W3          N/A  HX  91
PTA KEAMUKU*     N/A     73  70  88 CALM        N/A
WAIKOLOA*      NOT AVBL
$$

HIZ027>028-280200-
BIG ISLAND OF HAWAII INTERIOR AND SUMMMITS-

CITY           SKY/WX    TMP DP  RH WIND       PRES   REMARKS
BRADSHAW FIELD CLOUDY    72  63  73 W13G18    30.21F
MK VISITOR CEN   N/A     57  52  82 W2          N/A
MAUNA KEA*       N/A     43  41  93 SE3         N/A
MAUNA LOA*       N/A     52  48  87 MISG        N/A
MAUNA LOA 1*   NOT AVBL
PTA KIPUKA*      N/A     72  64  78 VRB6G13     N/A
PTA RANGE 17*    N/A     72  66  83 NW8G14      N/A
PTA WEST*        N/A     70  66  88 NW7         N/A
NENE CABIN*      N/A     63  59  88 SE3G10      N/A
AHUMOA*        NOT AVBL
PTA PORTABLE*  NOT AVBL
PUU MALI*        N/A     63  63 100 NE8G14      N/A
$$

HIC003-280200-
NORTHWEST ISLANDS-

CITY           SKY/WX    TMP DP  RH WIND       PRES   REMARKS
MIDWAY ISLAND  MOSUNNY   86  77  74 S8        29.87F HX  97
MIDWAY NOS*    NOT AVBL
FRENCH FRIGATE NOT AVBL
$$

PHZ110>124-180-280200-
BUOY REPORTS

STATION/POSITION TIME  TEMP    WIND        PRES    WAVE   SWELL
                       AIR SEA DIR/SP/G            HT/PER HT/DIR
                 (UTC) (F)     (DEG/KT/KT) (MB)    (FT/S) (FT/D)
BUOY 51001       0100   82 84   70/  8/ 10 1011.5
BUOY 51101       0100   82 83   80/ 10/ 12 1011.3F   7/15   7/310
BUOY 51100       NOT AVBL
BUOY 51002       0100   82 84   70/ 12/ 16 1008.3F   5/12   5/260
BUOY 51003       0100   83 86  100/  4/  4 1010.1F   5/16   5/220
BUOY 51004       0031   82 83   80/ 12/ 14 1009.6    5/14   5/200
BARBERS PT BUOY  NOT AVBL
WAIMEA BAY BUOY  0100      85                N/A     3/13   2/300
KAILUA BAY BUOY  0100      84                N/A     2/ 7   2/130
LANAI BUOY       NOT AVBL
BARBERS PT 2     0100      86                N/A     4/14   3/220
PAUWELA MAUI     0100      84                N/A     3/15
HILO             NOT AVBL
KANEOHE BAY BUOY 0100      83                N/A     2/ 7   2/ 20
HANALEI KAUAI    0100                        N/A     3/13   2/290
KAHULUI HARBOR   0100   83 84   10/  9/ 12 1010.2F
HONOLULU HARBOR  0100   82 82  220/  4/  6 1010.7F
KILO NALU        NOT AVBL
HILO HARBOR      0100   92 80  130/ 10/ 13 1010.4S
MOKUOLOE         0100   84 86   10/  5/  6 1011.1R
NAWILIWILI       0100   84 82  110/  5/  5 1010.7F
WHOTS BUOY       NOT AVBL
BUOY 51028       NOT AVBL
$$

......................KEY........................................
  SKY/WX - SKY CONDITIONS/PRESENT WEATHER
  TMP    - TEMPERATURE IN FAHRENHEIT
  DWPT   - DEWPOINT IN FAHRENHEIT
  RH     - RELATIVE HUMIDITY IN PERCENT
  WIND   - DIRECTION AND SPEED /MPH FOR ISLANDS...KTS FOR BUOYS/
  PRES   - MEAN SEA LEVEL PRESSURE IN INCHES OF HG
  VSB    - VISIBILITY IN MILES
  HX     - HEAT INDEX
  WCI    - WIND CHILL INDEX
  VRB    - VARIABLE WIND DIRECTION
  N/A    - NOT AVAILABLE



USA.gov is the U.S. government's official web portal to all federal, state and local government web resources and services.